,,PA_Meas_PMT16A,,PR_Meas_QMR101_102,,RH_Meas_QMH101,,SR_Meas_QMS101,,TA_Meas_QMH101,,GenWind,,GenWind,
time,status,PA,status,PR,status,RH,status,SR,status,TA,status,DirAvg,status,SpdAvg,
2012-11-12, 06:46:04,VALID,916.475,VALID,0,VALID,96.9241,VALID,76.1758,VALID,18.7517,VALID,30,VALID,0,
2012-11-12, 06:47:04,VALID,915.506,VALID,0,VALID,96.9241,VALID,78.1097,VALID,18.7712,VALID,30,VALID,0,
2012-11-12, 06:48:04,VALID,916.809,VALID,0,VALID,96.9165,VALID,80.2585,VALID,18.8087,VALID,30,VALID,0,
2012-11-12, 06:49:04,VALID,918.317,VALID,0,VALID,96.9089,VALID,81.8702,VALID,18.8282,VALID,30,VALID,0,
2012-11-12, 06:50:04,VALID,918.021,VALID,0,VALID,96.8936,VALID,83.2669,VALID,18.8477,VALID,30,VALID,0,
2012-11-12, 06:51:04,VALID,917.384,VALID,0,VALID,96.9012,VALID,84.5562,VALID,18.8672,VALID,30,VALID,0,
2012-11-12, 06:52:04,VALID,917.54,VALID,0,VALID,96.8784,VALID,85.8455,VALID,18.9062,VALID,30,VALID,0,
2012-11-12, 06:53:04,VALID,916.41,VALID,0,VALID,96.9089,VALID,87.4571,VALID,18.9438,VALID,30,VALID,0,
2012-11-12, 06:54:04,VALID,916.986,VALID,0,VALID,96.9012,VALID,89.391,VALID,19.0037,VALID,30,VALID,0,
2012-11-12, 06:55:04,VALID,916.628,VALID,0,VALID,96.8707,VALID,91.5399,VALID,19.0037,VALID,30,VALID,0,
2012-11-12, 06:56:04,VALID,916.763,VALID,0,VALID,96.825,VALID,93.6887,VALID,19.0023,VALID,347,VALID,0,
2012-11-12, 06:57:04,VALID,917.365,VALID,0,VALID,96.7488,VALID,96.0524,VALID,19.0037,VALID,347,VALID,0,
2012-11-12, 06:58:04,VALID,917.298,VALID,0,VALID,96.6344,VALID,99.1682,VALID,18.9842,VALID,347,VALID,0,
2012-11-12, 06:59:04,VALID,917.828,VALID,0,VALID,96.5734,VALID,104.433,VALID,18.9633,VALID,347,VALID,0,
2012-11-12, 07:00:04,VALID,916.289,VALID,0,VALID,96.5734,VALID,111.954,VALID,18.9828,VALID,347,VALID,0,
2012-11-12, 07:01:04,VALID,916.732,VALID,0,VALID,96.6573,VALID,114.855,VALID,19.0832,VALID,347,VALID,0,
2012-11-12, 07:02:04,VALID,917.647,VALID,0,VALID,96.6878,VALID,120.442,VALID,19.1207,VALID,347,VALID,0,
2012-11-12, 07:03:04,VALID,917.203,VALID,0,VALID,96.6725,VALID,122.698,VALID,19.2002,VALID,347,VALID,0,
2012-11-12, 07:04:04,VALID,917.093,VALID,0,VALID,96.4972,VALID,124.095,VALID,19.2197,VALID,347,VALID,0,
2012-11-12, 07:05:04,VALID,917.604,VALID,0,VALID,96.4362,VALID,122.161,VALID,19.2392,VALID,347,VALID,0,
2012-11-12, 07:06:04,VALID,916.696,VALID,0,VALID,96.4896,VALID,128.607,VALID,19.3172,VALID,347,VALID,0,
2012-11-12, 07:07:04,VALID,916.854,VALID,0,VALID,96.3066,VALID,133.227,VALID,19.3562,VALID,347,VALID,0,
2012-11-12, 07:08:04,VALID,916.858,VALID,0,VALID,96.1389,VALID,132.582,VALID,19.3352,VALID,347,VALID,0,
2012-11-12, 07:09:04,VALID,916.87,VALID,0,VALID,96.238,VALID,127.64,VALID,19.4327,VALID,347,VALID,0,
2012-11-12, 07:10:04,VALID,916.863,VALID,0,VALID,96.1846,VALID,128.714,VALID,19.5303,VALID,347,VALID,0,
2012-11-12, 07:11:04,VALID,916.849,VALID,0,VALID,95.9788,VALID,141.07,VALID,19.5888,VALID,347,VALID,0,
2012-11-12, 07:12:04,VALID,916.872,VALID,0,VALID,95.895,VALID,143.541,VALID,19.6683,VALID,347,VALID,0,
2012-11-12, 07:13:04,VALID,916.856,VALID,0,VALID,95.7577,VALID,132.582,VALID,19.7058,VALID,347,VALID,0,
2012-11-12, 07:14:04,VALID,916.886,VALID,0,VALID,95.712,VALID,131.186,VALID,19.7838,VALID,347,VALID,0,
2012-11-12, 07:15:04,VALID,916.883,VALID,0,VALID,95.4604,VALID,145.69,VALID,19.8423,VALID,347,VALID,0,
2012-11-12, 07:16:04,VALID,916.872,VALID,0,VALID,95.2088,VALID,147.409,VALID,19.8618,VALID,347,VALID,0,
2012-11-12, 07:17:04,VALID,916.911,VALID,0,VALID,95.003,VALID,150.955,VALID,19.9203,VALID,347,VALID,0,
2012-11-12, 07:18:04,VALID,916.922,VALID,0,VALID,94.8963,VALID,156.112,VALID,19.9788,VALID,347,VALID,0,
2012-11-12, 07:19:04,VALID,916.905,VALID,0,VALID,94.6981,VALID,163.311,VALID,19.9968,VALID,202,VALID,0,
2012-11-12, 07:20:04,VALID,916.821,VALID,0,VALID,94.3398,VALID,167.286,VALID,20.0163,VALID,202,VALID,0,
2012-11-12, 07:21:04,VALID,916.946,VALID,0,VALID,94.0577,VALID,173.195,VALID,20.0179,VALID,202,VALID,0,
2012-11-12, 07:22:04,VALID,916.978,VALID,0,VALID,94.0196,VALID,176.956,VALID,20.0749,VALID,202,VALID,0,
2012-11-12, 07:23:04,VALID,917,VALID,0,VALID,93.7604,VALID,179.104,VALID,20.1349,VALID,202,VALID,0,
2012-11-12, 07:24:04,VALID,917.454,VALID,0,VALID,93.5241,VALID,180.501,VALID,20.1334,VALID,202,VALID,0,
2012-11-12, 07:25:04,VALID,917.001,VALID,0,VALID,92.7541,VALID,180.609,VALID,20.1154,VALID,178,VALID,0,
2012-11-12, 07:26:04,VALID,917.019,VALID,0,VALID,92.5635,VALID,182.543,VALID,20.1349,VALID,178,VALID,0,
2012-11-12, 07:27:04,VALID,917.133,VALID,0,VALID,92.533,VALID,185.551,VALID,20.1334,VALID,180,VALID,0,
2012-11-12, 07:28:04,VALID,917.015,VALID,0,VALID,92.2586,VALID,186.088,VALID,20.1334,VALID,180,VALID,0,
2012-11-12, 07:29:04,VALID,917.09,VALID,0,VALID,92.1214,VALID,187.377,VALID,20.1724,VALID,183,VALID,0,
2012-11-12, 07:30:04,VALID,917.052,VALID,0,VALID,92.2357,VALID,192.32,VALID,20.2309,VALID,183,VALID,0,
2012-11-12, 07:31:04,VALID,917.141,VALID,0,VALID,92.3577,VALID,191.03,VALID,20.3105,VALID,184,VALID,0,
2012-11-12, 07:32:04,VALID,917.011,VALID,0,VALID,92.1595,VALID,192.32,VALID,20.3495,VALID,184,VALID,0,
2012-11-12, 07:33:04,VALID,917.053,VALID,0,VALID,92.2967,VALID,194.898,VALID,20.408,VALID,184,VALID,0,
2012-11-12, 07:34:04,VALID,916.992,VALID,0,VALID,92.2967,VALID,197.907,VALID,20.4454,VALID,183,VALID,0,
2012-11-12, 07:35:04,VALID,917.038,VALID,0,VALID,92.2586,VALID,202.741,VALID,20.543,VALID,184,VALID,0,
2012-11-12, 07:36:04,VALID,917.091,VALID,0,VALID,91.6487,VALID,197.692,VALID,20.543,VALID,180,VALID,0,
2012-11-12, 07:37:04,VALID,917.018,VALID,0,VALID,91.6106,VALID,203.494,VALID,20.582,VALID,180,VALID,0,
2012-11-12, 07:38:04,VALID,917.04,VALID,0,VALID,91.8012,VALID,213.271,VALID,20.621,VALID,180,VALID,0,
2012-11-12, 07:39:04,VALID,917.195,VALID,0,VALID,91.9918,VALID,216.924,VALID,20.699,VALID,180,VALID,0,
2012-11-12, 07:40:04,VALID,916.812,VALID,0,VALID,91.5648,VALID,218.965,VALID,20.7381,VALID,180,VALID,0,
2012-11-12, 07:41:04,VALID,916.985,VALID,0,VALID,91.2447,VALID,221.544,VALID,20.7771,VALID,199,VALID,0,
2012-11-12, 07:42:04,VALID,917.119,VALID,0,VALID,90.9321,VALID,231.106,VALID,20.8356,VALID,195,VALID,0,
2012-11-12, 07:43:04,VALID,917.146,VALID,0,VALID,90.9778,VALID,237.445,VALID,20.8746,VALID,195,VALID,0,
2012-11-12, 07:44:04,VALID,918.111,VALID,0,VALID,90.5357,VALID,245.181,VALID,20.9136,VALID,206,VALID,0,
2012-11-12, 07:45:04,VALID,917.007,VALID,0,VALID,90.1012,VALID,247.974,VALID,20.8941,VALID,198,VALID,0,
2012-11-12, 07:46:04,VALID,917.106,VALID,0,VALID,89.072,VALID,251.735,VALID,20.8941,VALID,246,VALID,0,
2012-11-12, 07:47:04,VALID,917.239,VALID,0,VALID,88.7594,VALID,255.28,VALID,20.8356,VALID,240,VALID,0,
2012-11-12, 07:48:04,VALID,917.241,VALID,0,VALID,89.0415,VALID,253.239,VALID,20.7966,VALID,240,VALID,0,
2012-11-12, 07:49:04,VALID,917.268,VALID,0,VALID,89.8953,VALID,259.148,VALID,20.795,VALID,194,VALID,0,
2012-11-12, 07:50:04,VALID,917.338,VALID,0,VALID,89.5828,VALID,259.255,VALID,20.8356,VALID,191,VALID,0,
2012-11-12, 07:51:04,VALID,917.364,VALID,0,VALID,89.7276,VALID,260.76,VALID,20.9136,VALID,191,VALID,0,
2012-11-12, 07:52:04,VALID,917.751,VALID,0,VALID,89.7047,VALID,260.545,VALID,20.9722,VALID,194,VALID,0,
2012-11-12, 07:53:04,VALID,917.95,VALID,0,VALID,89.7429,VALID,261.512,VALID,21.0291,VALID,194,VALID,0,
2012-11-12, 07:54:04,VALID,917.139,VALID,0,VALID,89.4989,VALID,263.016,VALID,21.0697,VALID,169,VALID,0,
2012-11-12, 07:55:04,VALID,918.242,VALID,0,VALID,88.668,VALID,271.826,VALID,21.1087,VALID,165,VALID,0,
2012-11-12, 07:56:04,VALID,917.367,VALID,0,VALID,88.5993,VALID,279.562,VALID,21.1868,VALID,180,VALID,0,
2012-11-12, 07:57:04,VALID,916.477,VALID,0,VALID,88.3935,VALID,283.107,VALID,21.2258,VALID,186,VALID,0,
2012-11-12, 07:58:04,VALID,918.397,VALID,0,VALID,88.2029,VALID,288.694,VALID,21.2632,VALID,188,VALID,0,
2012-11-12, 07:59:04,VALID,917.504,VALID,0,VALID,87.715,VALID,295.785,VALID,21.3038,VALID,198,VALID,0,
2012-11-12, 08:00:04,VALID,917.325,VALID,0,VALID,87.3491,VALID,296.645,VALID,21.3412,VALID,191,VALID,0,
2012-11-12, 08:01:04,VALID,917.474,VALID,0,VALID,86.4953,VALID,301.265,VALID,21.3803,VALID,187,VALID,0,
2012-11-12, 08:02:04,VALID,917.373,VALID,0,VALID,86.5791,VALID,307.067,VALID,21.4193,VALID,186,VALID,0,
2012-11-12, 08:03:04,VALID,917.518,VALID,0,VALID,86.0379,VALID,312.546,VALID,21.4583,VALID,184,VALID,0,
2012-11-12, 08:04:04,VALID,916.792,VALID,0,VALID,87.4787,VALID,288.372,VALID,21.4973,VALID,200,VALID,0,
2012-11-12, 08:05:04,VALID,917.375,VALID,0,VALID,86.5563,VALID,292.885,VALID,21.4778,VALID,242,VALID,0,
2012-11-12, 08:06:04,VALID,916.001,VALID,0,VALID,86.5486,VALID,282.785,VALID,21.3803,VALID,257,VALID,0,
2012-11-12, 08:07:04,INVALID,918.086,VALID,0,VALID,87.5778,VALID,273.545,VALID,21.2827,VALID,239,VALID,0,
2012-11-12, 08:08:04,VALID,917.535,VALID,0,VALID,86.8536,VALID,270.107,VALID,21.2632,VALID,227,VALID,0,
2012-11-12, 08:09:04,VALID,917.596,VALID,0,VALID,87.3872,VALID,268.173,VALID,21.2632,VALID,227,VALID,0,
2012-11-12, 08:10:04,VALID,917.676,VALID,0,VALID,87.6922,VALID,265.272,VALID,21.3022,VALID,200,VALID,0,
2012-11-12, 08:11:04,VALID,917.503,VALID,0,VALID,86.602,VALID,266.454,VALID,21.3217,VALID,233,VALID,0,
2012-11-12, 08:12:04,VALID,917.996,VALID,0,VALID,87.9818,VALID,275.264,VALID,21.3608,VALID,187,VALID,0,
2012-11-12, 08:13:04,VALID,917.672,VALID,0,VALID,86.8307,VALID,237.445,VALID,21.3412,VALID,187,VALID,0,
2012-11-12, 08:14:04,VALID,917.743,VALID,0,VALID,87.4025,VALID,211.552,VALID,21.3803,VALID,187,VALID,0,
2012-11-12, 08:15:04,VALID,917.825,VALID,0,VALID,87.2576,VALID,232.395,VALID,21.3624,VALID,187,VALID,0,
2012-11-12, 08:16:04,VALID,917.714,VALID,0,VALID,87.9132,VALID,252.057,VALID,21.4014,VALID,187,VALID,0,
2012-11-12, 08:17:04,VALID,917.586,VALID,0,VALID,86.0531,VALID,246.363,VALID,21.3819,VALID,213,VALID,0,
2012-11-12, 08:18:04,VALID,917.736,VALID,0,VALID,86.5791,VALID,231.106,VALID,21.4014,VALID,191,VALID,0,
2012-11-12, 08:19:04,VALID,918.075,VALID,0,VALID,86.1217,VALID,205.75,VALID,21.4209,VALID,236,VALID,0,
2012-11-12, 08:20:04,VALID,918.107,VALID,0,VALID,85.9616,VALID,201.237,VALID,21.4599,VALID,195,VALID,0,
2012-11-12, 08:21:04,VALID,917.813,VALID,0,VALID,86.8307,VALID,193.502,VALID,21.4778,VALID,197,VALID,0,
2012-11-12, 08:22:04,VALID,917.878,VALID,0,VALID,86.541,VALID,190.171,VALID,21.4794,VALID,208,VALID,0,
2012-11-12, 08:23:04,VALID,917.734,VALID,0,VALID,86.9527,VALID,190.923,VALID,21.5185,VALID,208,VALID,0,
2012-11-12, 08:24:04,VALID,917.81,VALID,0,VALID,85.9388,VALID,198.981,VALID,21.5575,VALID,208,VALID,0,
2012-11-12, 08:25:04,VALID,917.8,VALID,0,VALID,85.1993,VALID,209.188,VALID,21.577,VALID,208,VALID,0,
2012-11-12, 08:26:04,VALID,917.801,VALID,0,VALID,85.2755,VALID,216.816,VALID,21.5754,VALID,208,VALID,0,
2012-11-12, 08:27:04,VALID,917.918,VALID,0,VALID,84.5589,VALID,218.213,VALID,21.5965,VALID,208,VALID,0,
2012-11-12, 08:28:04,VALID,918.037,VALID,0,VALID,83.7585,VALID,213.808,VALID,21.5965,VALID,208,VALID,0,
2012-11-12, 08:29:04,VALID,917.852,VALID,0,VALID,85.3899,VALID,207.469,VALID,21.616,VALID,208,VALID,0,
2012-11-12, 08:30:04,VALID,917.897,VALID,0,VALID,85.9845,VALID,202.097,VALID,21.616,VALID,198,VALID,0,
2012-11-12, 08:31:04,VALID,917.989,VALID,0,VALID,84.902,VALID,196.832,VALID,21.5965,VALID,230,VALID,0,
2012-11-12, 08:32:04,VALID,917.983,VALID,0,VALID,85.3899,VALID,194.898,VALID,21.5965,VALID,194,VALID,0,
2012-11-12, 08:33:04,VALID,918,VALID,0,VALID,84.7495,VALID,197.369,VALID,21.616,VALID,194,VALID,0,
2012-11-12, 08:34:04,VALID,918.188,VALID,0,VALID,84.8258,VALID,201.882,VALID,21.5965,VALID,194,VALID,0,
2012-11-12, 08:35:04,VALID,918.067,VALID,0,VALID,82.5921,VALID,208.114,VALID,21.5965,VALID,194,VALID,0,
2012-11-12, 08:36:04,VALID,919.556,VALID,0,VALID,83.6212,VALID,213.056,VALID,21.6144,VALID,136,VALID,0,
2012-11-12, 08:37:04,VALID,918.089,VALID,0,VALID,83.0266,VALID,215.097,VALID,21.6356,VALID,86,VALID,0,
2012-11-12, 08:38:04,VALID,918.1,VALID,0,VALID,82.2109,VALID,215.205,VALID,21.616,VALID,176,VALID,0,
2012-11-12, 08:39:04,VALID,918.217,VALID,0,VALID,83.5298,VALID,214.775,VALID,21.616,VALID,176,VALID,0,
2012-11-12, 08:40:04,VALID,918.182,VALID,0,VALID,84.3531,VALID,213.808,VALID,21.6534,VALID,176,VALID,0,
2012-11-12, 08:41:04,VALID,917.917,VALID,0,VALID,84.132,VALID,212.304,VALID,21.7136,VALID,176,VALID,0,
2012-11-12, 08:42:04,VALID,919.454,VALID,0,VALID,82.2109,VALID,211.014,VALID,21.6924,VALID,176,VALID,0,
2012-11-12, 08:43:04,VALID,918.221,VALID,0,VALID,82.5768,VALID,210.585,VALID,21.712,VALID,176,VALID,0,
2012-11-12, 08:44:04,VALID,918.195,VALID,0,VALID,82.6378,VALID,211.767,VALID,21.7526,VALID,176,VALID,0,
2012-11-12, 08:45:04,VALID,918.212,VALID,0,VALID,82.6912,VALID,214.667,VALID,21.7917,VALID,176,VALID,0,
2012-11-12, 08:46:04,VALID,918.21,VALID,0,VALID,82.4854,VALID,219.717,VALID,21.829,VALID,176,VALID,0,
2012-11-12, 08:47:04,VALID,918.143,VALID,0,VALID,82.31,VALID,227.131,VALID,21.8502,VALID,176,VALID,0,
2012-11-12, 08:48:04,VALID,918.223,VALID,0,VALID,83.7585,VALID,237.445,VALID,21.8502,VALID,176,VALID,0,
2012-11-12, 08:49:04,VALID,918.339,VALID,0,VALID,85.3975,VALID,249.049,VALID,21.9087,VALID,176,VALID,0,
2012-11-12, 08:50:04,VALID,918.267,VALID,0,VALID,82.8665,VALID,262.586,VALID,21.9283,VALID,175,VALID,0,
2012-11-12, 08:51:04,VALID,918.219,VALID,0,VALID,82.6988,VALID,274.082,VALID,21.9087,VALID,174,VALID,0,
2012-11-12, 08:52:04,VALID,918.144,VALID,0,VALID,82.8284,VALID,287.942,VALID,21.9266,VALID,169,VALID,0,
2012-11-12, 08:53:04,VALID,918.338,VALID,0,VALID,83.08,VALID,288.587,VALID,21.9461,VALID,162,VALID,0,
2012-11-12, 08:54:04,VALID,918.316,VALID,0,VALID,83.606,VALID,277.521,VALID,22.0437,VALID,162,VALID,0,
2012-11-12, 08:55:04,VALID,918.278,VALID,0,VALID,82.1652,VALID,272.686,VALID,22.0827,VALID,162,VALID,0,
2012-11-12, 08:56:04,VALID,918.236,VALID,0,VALID,82.8437,VALID,275.801,VALID,22.0827,VALID,116,VALID,0,
2012-11-12, 08:57:04,VALID,918.277,VALID,0,VALID,82.0813,VALID,282.355,VALID,22.0047,VALID,114,VALID,0,
2012-11-12, 08:58:04,VALID,918.242,VALID,0,VALID,83.1791,VALID,293.852,VALID,21.9266,VALID,115,VALID,0,
2012-11-12, 08:59:04,VALID,918.232,VALID,0,VALID,82.188,VALID,293.314,VALID,21.8485,VALID,100,VALID,0,
2012-11-12, 09:00:04,VALID,918.256,VALID,0,VALID,83.1562,VALID,294.926,VALID,21.829,VALID,86,VALID,0,
2012-11-12, 09:01:04,VALID,918.31,VALID,0,VALID,83.9567,VALID,296.645,VALID,21.829,VALID,86,VALID,0,
2012-11-12, 09:02:04,VALID,918.242,VALID,0,VALID,82.897,VALID,297.612,VALID,21.8485,VALID,86,VALID,0,
2012-11-12, 09:03:04,VALID,918.274,VALID,0,VALID,83.3087,VALID,299.331,VALID,21.8876,VALID,86,VALID,0,
2012-11-12, 09:04:04,VALID,918.412,VALID,0,VALID,83.4688,VALID,301.05,VALID,21.9071,VALID,86,VALID,0,
2012-11-12, 09:05:04,VALID,918.329,VALID,0,VALID,82.8742,VALID,306.207,VALID,21.9656,VALID,87,VALID,0,
2012-11-12, 09:06:04,VALID,917.289,VALID,0,VALID,84.3836,VALID,313.513,VALID,22.0632,VALID,87,VALID,0,
2012-11-12, 09:07:04,VALID,918.088,VALID,0,VALID,84.2311,VALID,324.15,VALID,22.2193,VALID,87,VALID,0,
2012-11-12, 09:08:04,VALID,918.507,VALID,0,VALID,82.9046,VALID,339.944,VALID,22.2974,VALID,87,VALID,0,
2012-11-12, 09:09:04,VALID,918.256,VALID,0,VALID,82.5768,VALID,361.325,VALID,22.3933,VALID,87,VALID,0,
2012-11-12, 09:10:04,VALID,918.26,VALID,0,VALID,81.8145,VALID,345.961,VALID,22.3347,VALID,157,VALID,0,
2012-11-12, 09:11:04,VALID,918.158,VALID,0,VALID,80.8692,VALID,341.77,VALID,22.395,VALID,166,VALID,0,
2012-11-12, 09:12:04,VALID,918.324,VALID,0,VALID,81.2122,VALID,341.663,VALID,22.5121,VALID,323,VALID,0,
2012-11-12, 09:13:04,VALID,918.247,VALID,0,VALID,80.4042,VALID,341.018,VALID,22.5494,VALID,323,VALID,0,
2012-11-12, 09:14:04,VALID,918.378,VALID,0,VALID,79.3979,VALID,340.051,VALID,22.5901,VALID,12,VALID,0,
2012-11-12, 09:15:04,VALID,918.249,VALID,0,VALID,81.319,VALID,344.886,VALID,22.5901,VALID,12,VALID,0,
2012-11-12, 09:16:04,VALID,918.318,VALID,0,VALID,80.6405,VALID,365.407,VALID,22.6292,VALID,322,VALID,0,
2012-11-12, 09:17:04,VALID,918.299,VALID,0,VALID,79.1006,VALID,371.424,VALID,22.6877,VALID,306,VALID,0,
2012-11-12, 09:18:04,VALID,918.281,VALID,0,VALID,78.201,VALID,367.879,VALID,22.647,VALID,306,VALID,0,
2012-11-12, 09:19:04,VALID,918.247,VALID,0,VALID,78.2544,VALID,377.226,VALID,22.6274,VALID,306,VALID,0,
2012-11-12, 09:20:04,VALID,918.256,VALID,0,VALID,78.5669,VALID,369.383,VALID,22.6665,VALID,306,VALID,0,
2012-11-12, 09:21:04,VALID,916.983,VALID,0,VALID,77.8351,VALID,370.135,VALID,22.7072,VALID,306,VALID,0,
2012-11-12, 09:22:04,VALID,918.305,VALID,0,VALID,78.3916,VALID,368.631,VALID,22.725,VALID,306,VALID,0,
2012-11-12, 09:23:04,VALID,918.418,VALID,0,VALID,79.6266,VALID,367.771,VALID,22.7463,VALID,325,VALID,0,
2012-11-12, 09:24:04,VALID,918.194,VALID,0,VALID,79.6647,VALID,363.903,VALID,22.7072,VALID,355,VALID,0,
2012-11-12, 09:25:04,VALID,918.281,VALID,0,VALID,79.9239,VALID,366.697,VALID,22.7675,VALID,270,VALID,0,
2012-11-12, 09:26:04,VALID,918.366,VALID,0,VALID,79.4817,VALID,368.416,VALID,22.7267,VALID,265,VALID,0,
2012-11-12, 09:27:04,VALID,918.228,VALID,0,VALID,81.1284,VALID,371.424,VALID,22.7072,VALID,265,VALID,0,
2012-11-12, 09:28:04,VALID,918.415,VALID,0,VALID,81.0064,VALID,371.209,VALID,22.7658,VALID,266,VALID,0,
2012-11-12, 09:29:04,VALID,918.326,VALID,0,VALID,78.5288,VALID,370.027,VALID,22.7267,VALID,256,VALID,0,
2012-11-12, 09:30:04,VALID,918.215,VALID,0,VALID,80.4194,VALID,365.73,VALID,22.5511,VALID,236,VALID,0,
2012-11-12, 09:31:04,VALID,918.37,VALID,0,VALID,80.6786,VALID,364.44,VALID,22.5121,VALID,235,VALID,0,
2012-11-12, 09:32:04,VALID,918.329,VALID,0,VALID,80.8463,VALID,363.366,VALID,22.5121,VALID,282,VALID,0,
2012-11-12, 09:33:04,VALID,918.447,VALID,0,VALID,81.0064,VALID,367.126,VALID,22.5138,VALID,248,VALID,0,
2012-11-12, 09:34:04,VALID,918.348,VALID,0,VALID,81.4333,VALID,371.854,VALID,22.4925,VALID,296,VALID,0,
2012-11-12, 09:35:04,VALID,918.382,VALID,0,VALID,80.9149,VALID,375.292,VALID,22.5706,VALID,242,VALID,0,
2012-11-12, 09:36:04,VALID,918.525,VALID,0,VALID,80.3279,VALID,375.614,VALID,22.5901,VALID,242,VALID,0,
2012-11-12, 09:37:04,VALID,918.329,VALID,0,VALID,79.9468,VALID,383.135,VALID,22.473,VALID,254,VALID,0,
2012-11-12, 09:38:04,VALID,918.362,VALID,0,VALID,80.7243,VALID,383.135,VALID,22.434,VALID,264,VALID,0,
2012-11-12, 09:39:04,VALID,918.053,VALID,0,VALID,81.4867,VALID,386.788,VALID,22.4145,VALID,252,VALID,0,
2012-11-12, 09:40:04,VALID,918.537,VALID,0,VALID,82.0051,VALID,390.549,VALID,22.4357,VALID,222,VALID,0,
2012-11-12, 09:41:04,VALID,918.205,VALID,0,VALID,81.3419,VALID,391.838,VALID,22.473,VALID,212,VALID,0,
2012-11-12, 09:42:04,VALID,918.426,VALID,0,VALID,80.6786,VALID,397.532,VALID,22.5706,VALID,264,VALID,1.34609,
2012-11-12, 09:43:04,VALID,918.472,VALID,0,VALID,82.371,VALID,398.069,VALID,22.5316,VALID,246,VALID,1.31406,
2012-11-12, 09:44:04,VALID,918.395,VALID,0,VALID,81.6315,VALID,406.45,VALID,22.5316,VALID,247,VALID,1.20117,
2012-11-12, 09:45:04,VALID,918.375,VALID,0,VALID,81.7306,VALID,408.599,VALID,22.6096,VALID,218,VALID,1.34766,
2012-11-12, 09:46:04,VALID,918.142,VALID,0,VALID,81.8145,VALID,410.748,VALID,22.6682,VALID,228,VALID,0.999609,
2012-11-12, 09:47:04,VALID,918.392,VALID,0,VALID,81.4105,VALID,414.293,VALID,22.8243,VALID,230,VALID,0.989844,
2012-11-12, 09:48:04,VALID,918.511,VALID,0,VALID,81.1589,VALID,416.12,VALID,22.8634,VALID,260,VALID,1.25234,
2012-11-12, 09:49:04,VALID,918.467,VALID,0,VALID,82.2033,VALID,414.186,VALID,22.8651,VALID,245,VALID,0.865234,
2012-11-12, 09:50:04,VALID,918.853,VALID,0,VALID,81.075,VALID,413.326,VALID,22.9415,VALID,244,VALID,0.620313,
2012-11-12, 09:51:04,VALID,918.548,VALID,0,VALID,80.4118,VALID,404.301,VALID,23.0195,VALID,245,VALID,0.378516,
2012-11-12, 09:52:04,VALID,918.564,VALID,0,VALID,79.6647,VALID,401.185,VALID,23.0781,VALID,257,VALID,1.58438,
2012-11-12, 09:53:04,VALID,918.773,VALID,0,VALID,79.375,VALID,403.119,VALID,23,VALID,257,VALID,1.07148,
2012-11-12, 09:54:04,VALID,918.526,VALID,0,VALID,80.5185,VALID,409.673,VALID,23.0213,VALID,249,VALID,1.26797,
2012-11-12, 09:55:04,VALID,919.211,VALID,0,VALID,80.0078,VALID,421.599,VALID,22.9024,VALID,221,VALID,1.66094,
2012-11-12, 09:56:04,VALID,918.558,VALID,0,VALID,81.3419,VALID,441.583,VALID,23,VALID,217,VALID,0.783203,
2012-11-12, 09:57:04,VALID,918.575,VALID,0,VALID,80.084,VALID,461.03,VALID,23.0781,VALID,238,VALID,0.728516,
2012-11-12, 09:58:04,VALID,918.689,VALID,0,VALID,79.4741,VALID,466.617,VALID,23.1367,VALID,227,VALID,1.3875,
2012-11-12, 09:59:04,VALID,918.868,VALID,0,VALID,79.1234,VALID,488.857,VALID,23.2538,VALID,217,VALID,1.37109,
2012-11-12, 10:00:04,VALID,918.558,VALID,0,VALID,78.3611,VALID,537.635,VALID,23.3532,VALID,254,VALID,1.83398,
2012-11-12, 10:01:04,VALID,918.827,VALID,0,VALID,81.1894,VALID,549.239,VALID,23.3709,VALID,317,VALID,0.726953,
2012-11-12, 10:02:04,VALID,918.697,VALID,0,VALID,80.3279,VALID,511.742,VALID,23.5466,VALID,236,VALID,0.758594,
2012-11-12, 10:03:04,VALID,918.563,VALID,0,VALID,78.8719,VALID,556.545,VALID,23.8022,VALID,327,VALID,0.194141,
2012-11-12, 10:04:04,VALID,918.647,VALID,0,VALID,78.6127,VALID,572.017,VALID,24.0152,VALID,180,VALID,0.542969,
2012-11-12, 10:05:04,VALID,918.718,VALID,0,VALID,76.9889,VALID,534.735,VALID,24.2495,VALID,357,VALID,1.06094,
2012-11-12, 10:06:04,VALID,919.192,VALID,0,VALID,76.2799,VALID,565.893,VALID,24.2886,VALID,246,VALID,0.573828,
2012-11-12, 10:07:04,VALID,918.558,VALID,0,VALID,76.5315,VALID,495.411,VALID,24.3081,VALID,304,VALID,0.459766,
2012-11-12, 10:08:04,VALID,918.517,VALID,0,VALID,74.6256,VALID,572.876,VALID,24.3276,VALID,29,VALID,1.56406,
2012-11-12, 10:09:04,VALID,918.761,VALID,0,VALID,76.623,VALID,698.582,VALID,24.3081,VALID,75,VALID,0.694531,
2012-11-12, 10:10:04,VALID,918.479,VALID,0,VALID,77.8122,VALID,656.68,VALID,24.562,VALID,44,VALID,1.19766,
2012-11-12, 10:11:04,VALID,918.46,VALID,0,VALID,75.2279,VALID,508.841,VALID,24.7768,VALID,22,VALID,1.27578,
2012-11-12, 10:12:04,VALID,918.49,VALID,0,VALID,73.8938,VALID,566.322,VALID,24.853,VALID,27,VALID,1.11563,
2012-11-12, 10:13:04,VALID,918.021,VALID,0,VALID,75.609,VALID,685.152,VALID,24.8921,VALID,16,VALID,1.18594,
2012-11-12, 10:14:04,VALID,918.581,VALID,0,VALID,77.553,VALID,623.159,VALID,24.9526,VALID,23,VALID,1.22695,
2012-11-12, 10:15:04,VALID,918.535,VALID,0,VALID,75.083,VALID,716.203,VALID,25.1479,VALID,321,VALID,0.729297,
2012-11-12, 10:16:04,VALID,918.512,VALID,0,VALID,71.9117,VALID,778.089,VALID,25.3022,VALID,45,VALID,1.32109,
2012-11-12, 10:17:04,VALID,918.505,VALID,0,VALID,74.9229,VALID,759.502,VALID,25.3413,VALID,15,VALID,1.475,
2012-11-12, 10:18:04,VALID,918.487,VALID,0,VALID,73.3754,VALID,798.073,VALID,25.3041,VALID,329,VALID,1.79453,
2012-11-12, 10:19:04,VALID,918.436,VALID,0,VALID,73.7261,VALID,797.965,VALID,25.2651,VALID,51,VALID,1.57383,
2012-11-12, 10:20:04,VALID,918.522,VALID,0,VALID,73.2763,VALID,710.293,VALID,25.2632,VALID,4,VALID,1.27305,
2012-11-12, 10:21:04,VALID,918.467,VALID,0,VALID,73.9548,VALID,688.913,VALID,25.3999,VALID,35,VALID,1.48125,
2012-11-12, 10:22:04,VALID,918.556,VALID,0,VALID,72.9256,VALID,582.976,VALID,25.6147,VALID,30,VALID,1.70977,
2012-11-12, 10:23:04,VALID,918.531,VALID,0,VALID,72.0946,VALID,534.412,VALID,25.8101,VALID,303,VALID,0.572266,
2012-11-12, 10:24:04,VALID,918.44,VALID,0,VALID,71.1875,VALID,620.365,VALID,25.9273,VALID,36,VALID,0.705469,
2012-11-12, 10:25:04,VALID,918.537,VALID,0,VALID,69.4417,VALID,805.594,VALID,26.0836,VALID,50,VALID,1.76914,
2012-11-12, 10:26:04,VALID,918.409,VALID,0,VALID,67.5663,VALID,807.42,VALID,26.0445,VALID,317,VALID,0.802734,
2012-11-12, 10:27:04,VALID,918.607,VALID,0,VALID,70.0058,VALID,512.709,VALID,26.1227,VALID,19,VALID,1.97539,
2012-11-12, 10:28:04,VALID,918.508,VALID,0,VALID,70.4556,VALID,787.329,VALID,26.2203,VALID,31,VALID,1.17031,
2012-11-12, 10:29:04,VALID,918.486,VALID,0,VALID,68.626,VALID,754.344,VALID,26.2574,VALID,7,VALID,1.35156,
2012-11-12, 10:30:04,VALID,918.34,VALID,0,VALID,69.1901,VALID,670.325,VALID,26.2008,VALID,6,VALID,2.18047,